[[{"header":{"parameterUnit":"m.s-1","parameterCategory":1,"la1":30.2991,"la2":30.254,"lo1":-89.0895,"lo2":-89.0444,"dy":0.0017,"dx":0.0017,"nx":28,"ny":28,"refTime":"2025-02-10T09:00:00:Z","depth":0,"parameterNumber":2,"parameterNumberName":"U-component_of_WINDS"},"data":[0,0,0,0,0,0,0,0,0,0,0,0,0,0,0,0,0,0,0,0,0,0,0,0,0,0,0,0,0,0,0,0,0,0,0,0,0,0,0,0,0,0,0,0,0,0,0,0,0,0,0,0,0,0,0,0,0,0,-0.6243,-0.6244,0,-0.6274,-0.6275,-0.6275,-0.6281,-0.628,-0.628,-0.628,-0.6313,-0.6314,-0.6315,0,0,0,0,0,0,0,0,0,0,0,0,0,-0.6191,-0.6192,-0.6243,-0.6244,-0.6244,-0.6274,-0.6275,-0.6275,-0.6281,-0.628,-0.628,-0.628,-0.6313,-0.6314,-0.6315,0,0,0,0,0,0,0,0,0,0,0,0,0,-0.6217,-0.6192,-0.6243,-0.625,-0.6251,-0.6274,-0.6275,-0.6275,-0.6281,-0.628,-0.628,-0.628,-0.6312,-0.6314,-0.6315,-0.6334,0,0,-0.6321,-0.6321,0,0,0,0,0,0,0,0,-0.6216,-0.6219,-0.6249,-0.625,-0.6251,-0.6273,-0.6269,-0.6295,-0.6281,-0.627,-0.628,-0.6279,-0.63,-0.6303,-0.631,-0.6335,-0.6337,-0.6321,-0.6322,-0.6323,-0.6323,0,0,0,0,0,0,0,-0.6214,-0.6218,-0.6256,-0.6249,-0.6251,-0.6253,-0.6256,-0.6274,-0.6287,-0.6271,-0.6271,-0.6275,-0.6301,-0.6308,-0.631,-0.6337,-0.6321,-0.6322,-0.6323,-0.6324,-0.6382,-0.6382,0,0,0,0,0,0,-0.6211,-0.6216,-0.6255,-0.6257,-0.6232,-0.6254,-0.6258,-0.6267,-0.6287,-0.6289,-0.6275,-0.6275,-0.6305,-0.6308,-0.6312,-0.6335,-0.6323,-0.6324,-0.6325,-0.6381,-0.6382,-0.6383,0,0,0,0,0,0,-0.6209,-0.6214,-0.6253,-0.6237,-0.6242,-0.6256,-0.6265,-0.6267,-0.6275,-0.629,-0.6292,-0.628,-0.6305,-0.6309,-0.6329,-0.6336,-0.6325,-0.6326,-0.6381,-0.6382,-0.6382,-0.6382,0,0,0,0,0,0,-0.6208,-0.6213,-0.622,-0.6237,-0.6243,-0.6269,-0.6266,-0.6268,-0.6277,-0.6277,-0.6295,-0.6298,-0.6305,-0.6326,-0.633,-0.6339,-0.6328,-0.638,-0.6381,-0.6382,-0.6382,-0.6383,-0.6384,0,0,0,0,0,-0.6206,-0.6219,-0.622,-0.6225,-0.6251,-0.6269,-0.6273,-0.6281,-0.6278,-0.6285,-0.6295,-0.6297,-0.6335,-0.6328,-0.6333,-0.6342,-0.638,-0.6381,-0.6382,-0.6381,-0.6383,-0.6384,0,0,0,0,0,0,-0.6202,-0.6221,-0.6223,-0.6241,-0.6254,-0.627,-0.6279,-0.6282,-0.6296,-0.6296,-0.6306,-0.631,-0.6329,-0.6337,-0.6329,-0.6362,-0.6357,-0.636,-0.6355,-0.6357,-0.6358,-0.6355,-0.6329,0,0,0,0,0,-0.6204,-0.6216,-0.6232,-0.6247,-0.6253,-0.6265,-0.6274,-0.6279,-0.6293,-0.6298,-0.6309,-0.6323,-0.6339,-0.6348,-0.6363,-0.6383,-0.6388,-0.6392,-0.6393,-0.6394,-0.6396,-0.6409,-0.6411,-0.6386,-0.6386,-0.6386,0,0,-0.6206,-0.6218,-0.6225,-0.6246,-0.6257,-0.6271,-0.627,-0.6284,-0.6295,-0.63,-0.6319,-0.6329,-0.6345,-0.6365,-0.6375,-0.6373,-0.6404,-0.6396,-0.6396,-0.6398,-0.641,-0.6412,-0.6414,-0.6387,-0.6387,-0.6387,0,0,-0.6218,-0.6228,-0.6242,-0.6253,-0.6269,-0.6277,-0.628,-0.6297,-0.6303,-0.6323,-0.6327,-0.6341,-0.6367,-0.6378,-0.6387,-0.6406,-0.6409,-0.6411,-0.6417,-0.643,-0.6431,-0.6433,-0.644,-0.6443,-0.6413,-0.6413,-0.6413,0,-0.622,-0.624,-0.6249,-0.6263,-0.6273,-0.6279,-0.6293,-0.6304,-0.6324,-0.6331,-0.6329,-0.6362,-0.6373,-0.6397,-0.6402,-0.6409,-0.6414,-0.6409,-0.643,-0.6432,-0.6434,-0.6441,-0.6444,-0.6413,-0.6413,-0.6413,-0.6413,0,-0.6241,-0.6256,-0.6265,-0.6284,-0.6295,-0.631,-0.6322,-0.6332,-0.6337,-0.6346,-0.6366,-0.638,-0.6399,-0.6405,-0.641,-0.643,-0.6428,-0.6428,-0.6424,-0.6436,-0.6443,-0.6446,-0.6413,-0.6413,-0.6413,-0.6413,0,0,-0.625,-0.6275,-0.6278,-0.6288,-0.6307,-0.6319,-0.6334,-0.6352,-0.6361,-0.6375,-0.6389,-0.6412,-0.6413,-0.6423,-0.643,-0.6441,-0.6456,-0.6439,-0.644,-0.6442,-0.648,-0.6479,-0.6482,-0.6458,-0.6459,-0.6459,-0.6478,0,-0.6265,-0.6292,-0.6301,-0.6324,-0.6338,-0.6345,-0.6359,-0.6373,-0.6382,-0.6396,-0.6407,-0.6423,-0.6422,-0.6429,-0.644,-0.6451,-0.6463,-0.645,-0.6472,-0.6472,-0.6467,-0.6486,-0.6485,-0.6502,-0.6481,-0.6482,-0.6482,0,-0.6284,-0.6299,-0.6323,-0.6342,-0.6348,-0.636,-0.6378,-0.6391,-0.6408,-0.6414,-0.6427,-0.6433,-0.6451,-0.6447,-0.6472,-0.6463,-0.6473,-0.648,-0.6481,-0.6483,-0.6477,-0.6488,-0.6508,-0.6511,-0.6486,-0.6486,-0.6485,0,-0.6289,-0.6315,-0.6333,-0.6341,-0.6363,-0.6371,-0.6381,-0.6397,-0.6408,-0.6424,-0.6431,-0.6449,-0.6459,-0.6474,-0.6485,-0.6481,-0.651,-0.6506,-0.6516,-0.6516,-0.6521,-0.6521,-0.6543,-0.6528,-0.6528,-0.6528,-0.6528,0,-0.6304,-0.6318,-0.6335,-0.6346,-0.6364,-0.6375,-0.6392,-0.6402,-0.6417,-0.6431,-0.6439,-0.6452,-0.6466,-0.6482,-0.6491,-0.6512,-0.6516,-0.6522,-0.6524,-0.6521,-0.652,-0.6527,-0.6526,-0.6529,-0.6529,-0.6528,-0.6528,0,-0.6311,-0.6323,-0.6343,-0.6363,-0.6368,-0.638,-0.6397,-0.6409,-0.6419,-0.6437,-0.6442,-0.6458,-0.6477,-0.6491,-0.6515,-0.6521,-0.6543,-0.6545,-0.6537,-0.6538,-0.6548,-0.6547,-0.6575,-0.658,-0.6562,-0.6562,-0.6562,0,-0.6319,-0.6331,-0.6352,-0.6361,-0.6371,-0.6387,-0.6398,-0.641,-0.6422,-0.6442,-0.6452,-0.6471,-0.6487,-0.6518,-0.6532,-0.6551,-0.6554,-0.6563,-0.6557,-0.6554,-0.6554,-0.6553,-0.6555,-0.6563,-0.6563,-0.6564,-0.6564,0,-0.6333,-0.6339,-0.6354,-0.6372,-0.6385,-0.6399,-0.6414,-0.6422,-0.6437,-0.645,-0.6469,-0.6482,-0.6507,-0.6527,-0.6548,-0.6559,-0.6564,-0.6566,-0.6569,-0.6566,-0.656,-0.6564,-0.654,-0.6565,-0.6565,-0.6564,-0.6564,-0.6564,-0.6341,-0.6352,-0.6369,-0.6386,-0.6399,-0.6413,-0.6425,-0.6437,-0.6453,-0.6474,-0.6481,-0.6502,-0.652,-0.6548,-0.656,-0.6577,-0.6576,-0.6581,-0.6582,-0.6583,-0.6583,-0.6558,-0.6581,-0.6581,-0.6581,-0.6581,-0.6581,0,-0.6355,-0.6367,-0.6383,-0.6403,-0.6417,-0.6421,-0.6438,-0.645,-0.6467,-0.6484,-0.65,-0.6523,-0.6542,-0.6559,-0.6579,-0.659,-0.6593,-0.6595,-0.6594,-0.6597,-0.6582,-0.6577,-0.6592,-0.6592,-0.6592,-0.6592,-0.6592,-0.6592,-0.6364,-0.6383,-0.6391,-0.6417,-0.6429,-0.6448,-0.6458,-0.6472,-0.6485,-0.651,-0.6526,-0.6537,-0.6554,-0.6576,-0.6595,-0.6599,-0.6606,-0.6608,-0.6613,-0.6599,-0.6598,-0.6596,-0.6592,-0.6609,-0.6609,-0.6626,-0.6626,-0.6626]},{"header":{"parameterUnit":"m.s-1","parameterCategory":1,"la1":30.2991,"la2":30.254,"lo1":-89.0895,"lo2":-89.0444,"dy":0.0017,"dx":0.0017,"nx":28,"ny":28,"refTime":"2025-02-10T09:00:00:Z","depth":0,"parameterNumber":3,"parameterNumberName":"V-component_of_WINDS"},"data":[0,0,0,0,0,0,0,0,0,0,0,0,0,0,0,0,0,0,0,0,0,0,0,0,0,0,0,0,0,0,0,0,0,0,0,0,0,0,0,0,0,0,0,0,0,0,0,0,0,0,0,0,0,0,0,0,0,0,0.7994,0.7994,0,0.7998,0.7998,0.7998,0.7989,0.7989,0.7989,0.7989,0.7992,0.7993,0.7993,0,0,0,0,0,0,0,0,0,0,0,0,0,0.798,0.7981,0.7994,0.7994,0.7994,0.7998,0.7998,0.7998,0.7989,0.7989,0.7989,0.7988,0.7992,0.7993,0.7993,0,0,0,0,0,0,0,0,0,0,0,0,0,0.7985,0.7981,0.7994,0.7991,0.799,0.7998,0.7998,0.7998,0.7989,0.7989,0.7989,0.7988,0.7992,0.7993,0.7993,0.8004,0,0,0.7995,0.7995,0,0,0,0,0,0,0,0,0.7985,0.7986,0.7991,0.7991,0.7991,0.7993,0.7994,0.8,0.799,0.799,0.7989,0.7988,0.7993,0.7993,0.7995,0.8005,0.8005,0.7995,0.7995,0.7995,0.7996,0,0,0,0,0,0,0,0.7985,0.7986,0.7996,0.7991,0.7991,0.7989,0.7989,0.7995,0.7994,0.799,0.7989,0.799,0.7993,0.7994,0.7995,0.8005,0.7995,0.7995,0.7996,0.7996,0.8023,0.8023,0,0,0,0,0,0,0.7985,0.7985,0.7996,0.7996,0.7987,0.7989,0.7989,0.7992,0.7993,0.7993,0.799,0.7989,0.7994,0.7994,0.7995,0.8008,0.7995,0.7996,0.7996,0.8023,0.8023,0.8024,0,0,0,0,0,0,0.7985,0.7986,0.7995,0.799,0.7991,0.799,0.7993,0.7993,0.7994,0.7994,0.7993,0.7992,0.7993,0.7994,0.8002,0.8008,0.7996,0.7997,0.8022,0.8023,0.8023,0.8034,0,0,0,0,0,0,0.7984,0.7986,0.799,0.7991,0.7992,0.8002,0.7994,0.7993,0.7995,0.7994,0.7995,0.7995,0.7993,0.8001,0.8002,0.8008,0.7997,0.8022,0.8022,0.8023,0.8033,0.8035,0.8036,0,0,0,0,0,0.7984,0.7993,0.7991,0.7992,0.7997,0.8003,0.8004,0.8001,0.7996,0.8,0.7999,0.7995,0.8007,0.8002,0.8003,0.8009,0.8021,0.8022,0.8023,0.8032,0.8034,0.8036,0,0,0,0,0,0,0.7994,0.7993,0.799,0.8,0.8002,0.8001,0.8007,0.8003,0.8006,0.8005,0.8002,0.8002,0.801,0.801,0.8005,0.802,0.8013,0.8014,0.802,0.8022,0.8023,0.8023,0.7997,0,0,0,0,0,0.7998,0.8002,0.8001,0.801,0.8011,0.8009,0.8011,0.8009,0.801,0.8011,0.8011,0.8012,0.8016,0.8019,0.8022,0.8032,0.8032,0.8037,0.8039,0.804,0.8042,0.8046,0.8048,0.8027,0.8027,0.8027,0,0,0.8005,0.8005,0.8008,0.8012,0.8013,0.8018,0.8009,0.8015,0.8018,0.8011,0.8019,0.8018,0.802,0.8029,0.8033,0.8029,0.8047,0.8041,0.8042,0.8043,0.8048,0.805,0.8051,0.8027,0.8027,0.8027,0,0,0.8021,0.8021,0.8028,0.8029,0.803,0.8028,0.803,0.803,0.803,0.8036,0.8031,0.8035,0.8042,0.8043,0.8045,0.8059,0.8055,0.806,0.8069,0.8074,0.8076,0.8077,0.8082,0.8084,0.8061,0.8061,0.8061,0,0.803,0.8037,0.8033,0.8038,0.804,0.8033,0.804,0.8041,0.8043,0.8045,0.8041,0.8048,0.8049,0.8058,0.8061,0.8062,0.8064,0.806,0.8076,0.8077,0.8078,0.8083,0.8085,0.8062,0.8062,0.8062,0.8062,0,0.8047,0.8052,0.8058,0.806,0.8062,0.8068,0.8065,0.8067,0.8064,0.8063,0.807,0.807,0.8073,0.8075,0.8072,0.8083,0.8081,0.8076,0.8069,0.8081,0.8086,0.8087,0.8063,0.8063,0.8062,0.8062,0,0,0.8071,0.807,0.8072,0.8072,0.8072,0.8076,0.8081,0.8084,0.8086,0.8087,0.8092,0.8097,0.8093,0.8094,0.8092,0.8096,0.8107,0.8091,0.8091,0.8094,0.8118,0.8122,0.8124,0.8104,0.8104,0.8105,0.8118,0,0.8087,0.8096,0.8092,0.8102,0.8106,0.8099,0.8104,0.8104,0.8103,0.8106,0.8104,0.8108,0.8102,0.8102,0.8106,0.8105,0.8112,0.8104,0.8108,0.8109,0.8109,0.8127,0.8131,0.8144,0.812,0.812,0.8121,0,0.8106,0.8108,0.8118,0.8116,0.8118,0.8122,0.8124,0.8127,0.8127,0.8125,0.8126,0.8122,0.8127,0.812,0.8127,0.8121,0.8123,0.8122,0.8123,0.8124,0.8116,0.8128,0.8148,0.815,0.8123,0.8123,0.8123,0,0.8123,0.8127,0.8134,0.8134,0.8132,0.8136,0.8135,0.8134,0.8136,0.8137,0.8138,0.814,0.8141,0.8143,0.8139,0.8134,0.8147,0.8139,0.8146,0.8146,0.8149,0.8149,0.817,0.8149,0.8149,0.8149,0.8149,0,0.8141,0.8147,0.8141,0.8145,0.8152,0.8147,0.8154,0.8152,0.8151,0.8155,0.8149,0.8152,0.8147,0.815,0.8147,0.8153,0.8154,0.8153,0.8152,0.8154,0.8154,0.8155,0.8154,0.815,0.815,0.815,0.815,0,0.8161,0.8157,0.8163,0.8161,0.816,0.8165,0.8163,0.8166,0.8164,0.8168,0.8169,0.8165,0.8168,0.8164,0.8167,0.8165,0.8173,0.8171,0.8173,0.8173,0.818,0.8179,0.8203,0.8205,0.8182,0.8183,0.8183,0,0.8173,0.8178,0.8175,0.8177,0.8176,0.8179,0.8181,0.8175,0.8177,0.8176,0.818,0.8182,0.8184,0.8188,0.8186,0.8188,0.8186,0.8194,0.8186,0.8187,0.8186,0.8186,0.8187,0.8196,0.8196,0.8196,0.8196,0,0.8195,0.8192,0.8194,0.8195,0.8197,0.8197,0.8198,0.8199,0.8193,0.8195,0.8198,0.8199,0.8201,0.8204,0.8205,0.8204,0.8199,0.8198,0.82,0.8202,0.8204,0.8203,0.8178,0.8198,0.8198,0.8198,0.8198,0.8198,0.8212,0.8215,0.8214,0.8216,0.8215,0.8215,0.8218,0.8215,0.8217,0.8219,0.8215,0.8218,0.8217,0.8218,0.8218,0.822,0.8217,0.8219,0.822,0.8221,0.8222,0.8202,0.822,0.822,0.822,0.822,0.822,0,0.8234,0.8232,0.8234,0.8234,0.8235,0.823,0.8229,0.8231,0.8234,0.8233,0.8234,0.8237,0.8239,0.8236,0.8237,0.824,0.8238,0.824,0.8241,0.8241,0.8225,0.8223,0.8242,0.8242,0.8242,0.8242,0.8242,0.8242,0.8246,0.8251,0.8248,0.8253,0.8252,0.8255,0.8255,0.8254,0.8254,0.8257,0.8258,0.8256,0.8254,0.8255,0.8256,0.8255,0.8256,0.826,0.8258,0.8244,0.8242,0.824,0.8238,0.826,0.826,0.8274,0.8274,0.8274]}]]